Weather History for Burlington, VT

Change the Weather History Date:

Friday, April 19, 2002

  Actual Average Record
Temperature  
Mean Temperature 68 °F 46 °F  
Max Temperature 82 °F 57 °F 91 °F (1976)
Min Temperature 55 °F 36 °F 22 °F (1918)
Degree Days  
Heating Degree Days 0 19  
Month to date heating degree days 433  
Since 1 July heating degree days 6897  
Cooling Degree Days 4 0  
Month to date cooling degree days 0  
Year to date cooling degree days 0  
Growing Degree Days 18 (Base 50)    
Moisture  
Dew Point 54 °F    
Average Humidity 61    
Maximum Humidity 93    
Minimum Humidity 31    
Precipitation  
Precipitation 0.00 in 0.09 in 0.76 in (1969)
Month to date precipitation 1.75  
Year to date precipitation 7.79  
Snow  
Snow 0.00 in 0.10 in 6.00 in (1925)
Month to date snowfall 3.6  
Since 1 July snowfall 80.2  
Snow Depth -    
Sea Level Pressure  
Sea Level Pressure 29.77 in    
Wind  
Wind Speed 8 mph (SW)    
Max Wind Speed 21 mph    
Max Gust Speed 29 mph    
Visibility 10 miles    
Events      
T = Trace of Precipitation, MM = Missing Value Source: NWS Daily Summary

Daily Weather History Graph

Daily Weather History Graph

Search for Another Location

Airport:

Trip Planner

Search our weather history database for the weather conditions in past years. The results will help you decide how hot, cold, wet, or windy it might be!

Date:

Astronomy

Apr. 19, 2002 Rise Set
Actual Time 6:02 AM EDT 7:42 PM EDT
Civil Twilight 5:31 AM EDT 8:12 PM EDT
Nautical Twilight 4:54 AM EDT 8:50 PM EDT
Astronomical Twilight 4:14 AM EDT 9:30 PM EDT
Moon 10:34 AM EDT (4/19) 1:48 AM EDT (4/19)
Length of Visible Light 14h 41m
Length of Day
13h 39m
Waxing Crescent, 41% of the Moon is Illuminated
Apr 19
Waxing Crescent
Apr 20
First Quarter
Apr 26
Full
May 4
Last Quarter
May 12
New

Hourly Weather History & Observations

Time (EDT) Temp. Heat Index Dew Point Humidity Pressure Visibility Wind Dir Wind Speed Gust Speed Precip Events Conditions
12:54 AM 57.9 °F - 55.0 °F 90% 29.91 in 10.0 mi Calm Calm - N/A   Clear
1:54 AM 57.9 °F - 53.1 °F 84% 29.89 in 10.0 mi SE 4.6 mph - N/A   Clear
2:54 AM 55.0 °F - 53.1 °F 93% 29.90 in 10.0 mi ESE 8.1 mph - N/A   Clear
3:54 AM 55.9 °F - 53.1 °F 90% 29.89 in 10.0 mi Calm Calm - N/A   Clear
4:54 AM 55.9 °F - 53.1 °F 90% 29.88 in 10.0 mi SE 5.8 mph - N/A   Overcast
5:54 AM 57.0 °F - 52.0 °F 83% 29.86 in 10.0 mi SSW 3.5 mph - N/A   Mostly Cloudy
6:54 AM 60.1 °F - 54.0 °F 80% 29.83 in 10.0 mi Calm Calm - N/A   Partly Cloudy
7:54 AM 66.9 °F - 54.0 °F 63% 29.81 in 10.0 mi South 11.5 mph - N/A   Clear
8:54 AM 71.1 °F - 54.0 °F 55% 29.78 in 10.0 mi South 20.7 mph 27.6 mph N/A   Clear
9:54 AM 73.9 °F - 55.9 °F 53% 29.77 in 10.0 mi South 20.7 mph 26.5 mph N/A   Clear
10:54 AM 73.9 °F - 57.9 °F 57% 29.74 in 10.0 mi South 19.6 mph 28.8 mph N/A   Scattered Clouds
11:54 AM 73.9 °F - 59.0 °F 59% 29.72 in 10.0 mi South 18.4 mph 25.3 mph N/A   Mostly Cloudy
12:54 PM 79.0 °F - 60.1 °F 52% 29.68 in 10.0 mi South 20.7 mph 26.5 mph N/A   Partly Cloudy
1:54 PM 81.0 °F 81.9 °F 62.1 °F 52% 29.67 in 10.0 mi South 15.0 mph 23.0 mph N/A   Partly Cloudy
2:54 PM 82.0 °F 83.1 °F 63.0 °F 52% 29.67 in 10.0 mi South 9.2 mph - N/A   Partly Cloudy
3:54 PM 81.0 °F 80.5 °F 54.0 °F 39% 29.67 in 10.0 mi West 8.1 mph - N/A   Scattered Clouds
4:54 PM 81.0 °F - 51.1 °F 35% 29.67 in 10.0 mi West 10.4 mph 20.7 mph N/A   Scattered Clouds
5:54 PM 81.0 °F - 48.0 °F 31% 29.67 in 10.0 mi West 13.8 mph 20.7 mph N/A   Partly Cloudy
6:54 PM 77.0 °F - 50.0 °F 39% 29.68 in 10.0 mi West 12.7 mph 20.7 mph N/A   Partly Cloudy
7:54 PM 75.0 °F - 54.0 °F 48% 29.71 in 10.0 mi West 10.4 mph - N/A   Partly Cloudy
8:54 PM 73.0 °F - 52.0 °F 48% 29.73 in 10.0 mi West 10.4 mph - N/A   Partly Cloudy
9:54 PM 70.0 °F - 51.1 °F 51% 29.77 in 10.0 mi NW 11.5 mph - N/A   Clear
10:54 PM 64.9 °F - 48.0 °F 54% 29.81 in 10.0 mi NNW 12.7 mph 21.9 mph N/A   Scattered Clouds
11:54 PM 59.0 °F - 45.0 °F 60% 29.84 in 10.0 mi North 12.7 mph 24.2 mph N/A   Partly Cloudy